Time,TemperatureF,DewpointF,PressureIn,WindDirection,WindDirectionDegrees,WindSpeedMPH,WindSpeedGustMPH,Humidity,HourlyPrecipIn,Conditions,Clouds,dailyrainin,SolarRadiationWatts/m^2,SoftwareType,DateUTC
2015-01-30 00:00:00,49.5,47.0,30.05,West,278,0.0,0.0,91,0.00,CLR,,0.00,0.0,WeatherDisplay:10.37,2015-01-30 08:00:00,
2015-01-30 00:06:00,49.4,46.9,30.05,West,277,0.0,0.0,91,0.00,CLR,,0.00,0.0,WeatherDisplay:10.37,2015-01-30 08:06:00,
2015-01-30 00:11:00,49.2,46.7,30.05,West,278,0.0,0.0,91,0.00,CLR,,0.00,0.0,WeatherDisplay:10.37,2015-01-30 08:11:00,
2015-01-30 00:16:00,49.1,46.6,30.04,West,277,0.0,0.0,91,0.00,CLR,,0.00,0.0,WeatherDisplay:10.37,2015-01-30 08:16:00,
2015-01-30 00:21:00,49.1,46.6,30.04,West,278,0.0,0.0,91,0.00,CLR,,0.00,0.0,WeatherDisplay:10.37,2015-01-30 08:21:00,
2015-01-30 00:26:00,49.1,46.6,30.04,West,278,0.0,0.0,91,0.00,CLR,,0.00,0.0,WeatherDisplay:10.37,2015-01-30 08:26:00,
2015-01-30 00:31:00,49.1,46.6,30.04,West,278,0.0,0.0,91,0.00,CLR,,0.00,0.0,WeatherDisplay:10.37,2015-01-30 08:31:00,
2015-01-30 00:36:00,48.9,46.4,30.04,West,277,0.0,0.0,91,0.00,CLR,,0.00,0.0,WeatherDisplay:10.37,2015-01-30 08:36:00,
2015-01-30 00:41:00,48.8,46.3,30.04,West,278,0.0,0.0,91,0.00,CLR,,0.00,0.0,WeatherDisplay:10.37,2015-01-30 08:41:00,
2015-01-30 00:46:00,48.5,46.0,30.03,West,277,0.0,0.0,91,0.00,CLR,,0.00,0.0,WeatherDisplay:10.37,2015-01-30 08:46:00,
2015-01-30 00:51:00,48.3,45.8,30.03,West,278,0.0,0.0,91,0.00,CLR,,0.00,0.0,WeatherDisplay:10.37,2015-01-30 08:51:00,
2015-01-30 00:56:00,48.3,45.8,30.03,West,278,0.0,0.0,91,0.00,CLR,,0.00,0.0,WeatherDisplay:10.37,2015-01-30 08:56:00,
2015-01-30 01:01:00,48.2,45.7,30.03,West,278,0.0,0.0,91,0.00,CLR,,0.00,0.0,WeatherDisplay:10.37,2015-01-30 09:01:00,
2015-01-30 01:06:00,47.7,45.2,30.03,West,278,0.0,0.0,91,0.00,CLR,,0.00,0.0,WeatherDisplay:10.37,2015-01-30 09:06:00,
2015-01-30 01:11:00,47.6,45.1,30.03,West,277,0.0,0.0,91,0.00,CLR,,0.00,0.0,WeatherDisplay:10.37,2015-01-30 09:11:00,
2015-01-30 01:16:00,47.4,44.9,30.03,West,277,0.0,0.0,91,0.00,CLR,,0.00,0.0,WeatherDisplay:10.37,2015-01-30 09:16:00,
2015-01-30 01:21:00,47.3,44.8,30.03,West,278,0.0,0.0,91,0.00,FEW,,0.00,0.0,WeatherDisplay:10.37,2015-01-30 09:21:00,
2015-01-30 01:26:00,47.3,44.8,30.03,West,278,0.0,0.0,91,0.00,FEW,,0.00,0.0,WeatherDisplay:10.37,2015-01-30 09:26:00,
2015-01-30 01:31:00,47.4,45.2,30.03,West,278,0.0,0.0,92,0.00,FEW,,0.00,0.0,WeatherDisplay:10.37,2015-01-30 09:31:00,
2015-01-30 01:36:00,47.7,45.5,30.03,West,278,0.0,0.0,92,0.00,FEW,,0.00,0.0,WeatherDisplay:10.37,2015-01-30 09:36:00,
2015-01-30 01:41:00,47.6,45.1,30.03,West,277,0.0,0.0,91,0.00,BKN,,0.00,0.0,WeatherDisplay:10.37,2015-01-30 09:41:00,
2015-01-30 01:46:00,47.4,45.2,30.03,West,278,0.0,0.0,92,0.00,BKN,,0.00,0.0,WeatherDisplay:10.37,2015-01-30 09:46:00,
2015-01-30 01:51:00,47.3,45.1,30.03,West,278,0.0,0.0,92,0.00,BKN,,0.00,0.0,WeatherDisplay:10.37,2015-01-30 09:51:00,
2015-01-30 01:56:00,47.6,45.4,30.03,West,278,0.0,0.0,92,0.00,BKN,,0.00,0.0,WeatherDisplay:10.37,2015-01-30 09:56:00,
2015-01-30 02:01:00,47.9,45.7,30.03,West,278,0.0,0.0,92,0.00,FEW,,0.00,0.0,WeatherDisplay:10.37,2015-01-30 10:01:00,
2015-01-30 02:06:00,48.0,45.8,30.03,West,278,0.0,0.0,92,0.00,FEW,,0.00,0.0,WeatherDisplay:10.37,2015-01-30 10:06:00,
2015-01-30 02:11:00,47.9,45.7,30.03,West,278,0.0,0.0,92,0.00,FEW,,0.00,0.0,WeatherDisplay:10.37,2015-01-30 10:11:00,
2015-01-30 02:16:00,47.6,45.4,30.03,West,278,0.0,0.0,92,0.00,FEW,,0.00,0.0,WeatherDisplay:10.37,2015-01-30 10:16:00,
2015-01-30 02:21:00,47.6,45.4,30.03,West,277,0.0,0.0,92,0.00,FEW,,0.00,0.0,WeatherDisplay:10.37,2015-01-30 10:21:00,
2015-01-30 02:26:00,47.4,44.9,30.03,West,278,0.0,0.0,91,0.00,FEW,,0.00,0.0,WeatherDisplay:10.37,2015-01-30 10:26:00,
2015-01-30 02:31:00,47.6,45.4,30.03,West,278,0.0,0.0,92,0.00,FEW,,0.00,0.0,WeatherDisplay:10.37,2015-01-30 10:31:00,
2015-01-30 02:36:00,47.6,45.4,30.03,West,278,2.3,2.3,92,0.00,FEW,,0.00,0.0,WeatherDisplay:10.37,2015-01-30 10:36:00,
2015-01-30 02:41:00,47.6,45.4,30.03,West,278,0.0,0.0,92,0.00,FEW,,0.00,0.0,WeatherDisplay:10.37,2015-01-30 10:41:00,
2015-01-30 02:46:00,47.6,45.4,30.02,West,278,0.0,0.0,92,0.00,FEW,,0.00,0.0,WeatherDisplay:10.37,2015-01-30 10:46:00,
2015-01-30 02:51:00,47.7,45.5,30.02,West,278,0.0,0.0,92,0.00,FEW,,0.00,0.0,WeatherDisplay:10.37,2015-01-30 10:51:00,
2015-01-30 02:56:00,47.7,45.5,30.02,West,278,0.0,0.0,92,0.00,FEW,,0.00,0.0,WeatherDisplay:10.37,2015-01-30 10:56:00,
2015-01-30 03:01:00,47.6,45.1,30.02,West,278,0.0,0.0,91,0.00,CLR,,0.00,0.0,WeatherDisplay:10.37,2015-01-30 11:01:00,
2015-01-30 03:06:00,47.7,45.5,30.02,West,278,0.0,0.0,92,0.00,CLR,,0.00,0.0,WeatherDisplay:10.37,2015-01-30 11:06:00,
2015-01-30 03:11:00,47.6,45.4,30.02,West,278,0.0,0.0,92,0.00,CLR,,0.00,0.0,WeatherDisplay:10.37,2015-01-30 11:11:00,
2015-01-30 03:16:00,47.6,45.4,30.02,West,278,0.0,0.0,92,0.00,CLR,,0.00,0.0,WeatherDisplay:10.37,2015-01-30 11:16:00,
2015-01-30 03:21:00,47.6,45.4,30.02,West,278,0.0,0.0,92,0.00,SCT,,0.00,0.0,WeatherDisplay:10.37,2015-01-30 11:21:00,
2015-01-30 03:26:00,47.4,44.9,30.02,West,278,0.0,0.0,91,0.00,SCT,,0.00,0.0,WeatherDisplay:10.37,2015-01-30 11:26:00,
2015-01-30 03:31:00,47.3,44.8,30.01,West,277,0.0,0.0,91,0.00,BKN,,0.00,0.0,WeatherDisplay:10.37,2015-01-30 11:31:00,
2015-01-30 03:36:00,47.1,44.9,30.01,West,278,0.0,0.0,92,0.00,BKN,,0.00,0.0,WeatherDisplay:10.37,2015-01-30 11:36:00,
2015-01-30 03:41:00,47.0,44.8,30.01,West,278,0.0,0.0,92,0.00,BKN,,0.00,0.0,WeatherDisplay:10.37,2015-01-30 11:41:00,
2015-01-30 03:46:00,47.1,44.9,30.01,West,278,0.0,0.0,92,0.00,BKN,,0.00,0.0,WeatherDisplay:10.37,2015-01-30 11:46:00,
2015-01-30 03:51:00,47.6,45.4,30.01,West,278,0.0,0.0,92,0.00,BKN,,0.00,0.0,WeatherDisplay:10.37,2015-01-30 11:51:00,
2015-01-30 03:56:00,47.7,45.5,30.01,West,278,0.0,0.0,92,0.00,BKN,,0.00,0.0,WeatherDisplay:10.37,2015-01-30 11:56:00,
2015-01-30 04:01:00,47.9,45.7,30.01,West,278,1.2,0.0,92,0.00,BKN,,0.00,0.0,WeatherDisplay:10.37,2015-01-30 12:01:00,
2015-01-30 04:06:00,48.0,45.8,30.01,West,278,0.0,0.0,92,0.00,BKN,,0.00,0.0,WeatherDisplay:10.37,2015-01-30 12:06:00,
2015-01-30 04:11:00,48.0,45.8,30.01,West,278,0.0,0.0,92,0.00,OVC,,0.00,0.0,WeatherDisplay:10.37,2015-01-30 12:11:00,
2015-01-30 04:16:00,48.3,46.1,30.01,West,278,0.0,0.0,92,0.00,OVC,,0.00,0.0,WeatherDisplay:10.37,2015-01-30 12:16:00,
2015-01-30 04:21:00,48.5,46.3,30.01,West,278,0.0,0.0,92,0.00,OVC,,0.00,0.0,WeatherDisplay:10.37,2015-01-30 12:21:00,
2015-01-30 04:26:00,48.6,46.4,30.01,West,278,0.0,0.0,92,0.00,OVC,,0.00,0.0,WeatherDisplay:10.37,2015-01-30 12:26:00,
2015-01-30 04:31:00,48.8,46.6,30.00,West,278,0.0,0.0,92,0.00,OVC,,0.00,0.0,WeatherDisplay:10.37,2015-01-30 12:31:00,
2015-01-30 04:36:00,48.9,46.7,30.00,West,278,0.0,0.0,92,0.00,OVC,,0.00,0.0,WeatherDisplay:10.37,2015-01-30 12:36:00,
2015-01-30 04:41:00,48.9,46.7,30.00,West,278,0.0,0.0,92,0.00,OVC,,0.00,0.0,WeatherDisplay:10.37,2015-01-30 12:41:00,
2015-01-30 04:46:00,49.1,46.9,30.00,West,278,0.0,0.0,92,0.00,OVC,,0.00,0.0,WeatherDisplay:10.37,2015-01-30 12:46:00,
2015-01-30 04:51:00,49.2,47.0,30.00,West,277,0.0,0.0,92,0.00,OVC,,0.00,0.0,WeatherDisplay:10.37,2015-01-30 12:51:00,
2015-01-30 04:56:00,49.4,47.2,30.00,West,278,0.0,0.0,92,0.00,OVC,,0.00,0.0,WeatherDisplay:10.37,2015-01-30 12:56:00,
2015-01-30 05:01:00,49.5,47.3,30.01,West,277,0.0,0.0,92,0.00,OVC,,0.00,0.0,WeatherDisplay:10.37,2015-01-30 13:01:00,
2015-01-30 05:06:00,49.6,47.4,30.01,West,278,0.0,0.0,92,0.00,OVC,,0.00,0.0,WeatherDisplay:10.37,2015-01-30 13:06:00,
2015-01-30 05:11:00,50.2,48.3,30.01,West,278,0.0,0.0,93,0.00,OVC,,0.00,0.0,WeatherDisplay:10.37,2015-01-30 13:11:00,
2015-01-30 05:16:00,50.8,48.8,30.00,West,277,0.0,0.0,93,0.00,OVC,,0.00,0.0,WeatherDisplay:10.37,2015-01-30 13:16:00,
2015-01-30 05:21:00,51.1,49.1,30.00,West,278,2.3,2.3,93,0.00,OVC,,0.00,0.0,WeatherDisplay:10.37,2015-01-30 13:21:00,
2015-01-30 05:26:00,51.3,49.3,30.00,West,278,0.0,0.0,93,0.00,OVC,,0.00,0.0,WeatherDisplay:10.37,2015-01-30 13:26:00,
2015-01-30 05:31:00,51.4,49.4,30.00,West,277,0.0,0.0,93,0.00,OVC,,0.00,0.0,WeatherDisplay:10.37,2015-01-30 13:31:00,
2015-01-30 05:36:00,51.4,49.4,30.00,West,277,0.0,0.0,93,0.00,OVC,,0.00,0.0,WeatherDisplay:10.37,2015-01-30 13:36:00,
2015-01-30 05:41:00,51.4,49.4,30.00,West,278,0.0,0.0,93,0.00,OVC,,0.00,0.0,WeatherDisplay:10.37,2015-01-30 13:41:00,
2015-01-30 05:46:00,51.4,49.4,30.00,West,278,0.0,0.0,93,0.00,OVC,,0.00,0.0,WeatherDisplay:10.37,2015-01-30 13:46:00,
2015-01-30 05:51:00,51.7,49.7,30.00,West,279,2.3,0.0,93,0.00,OVC,,0.00,0.0,WeatherDisplay:10.37,2015-01-30 13:51:00,
2015-01-30 05:56:00,51.9,49.9,30.00,West,278,0.0,0.0,93,0.00,OVC,,0.00,0.0,WeatherDisplay:10.37,2015-01-30 13:56:00,
2015-01-30 06:01:00,51.9,49.9,30.00,West,277,0.0,0.0,93,0.00,OVC,,0.00,0.0,WeatherDisplay:10.37,2015-01-30 14:01:00,
2015-01-30 06:06:00,51.9,49.9,30.00,West,278,0.0,0.0,93,0.00,OVC,,0.00,0.0,WeatherDisplay:10.37,2015-01-30 14:06:00,
2015-01-30 06:11:00,51.7,49.7,30.00,West,278,0.0,0.0,93,0.00,OVC,,0.00,0.0,WeatherDisplay:10.37,2015-01-30 14:11:00,
2015-01-30 06:16:00,51.7,49.7,30.00,West,278,0.0,0.0,93,0.00,OVC,,0.00,0.0,WeatherDisplay:10.37,2015-01-30 14:16:00,
2015-01-30 06:21:00,51.7,49.7,30.00,West,278,0.0,0.0,93,0.00,OVC,,0.00,0.0,WeatherDisplay:10.37,2015-01-30 14:21:00,
2015-01-30 06:26:00,51.9,49.9,30.00,West,278,0.0,0.0,93,0.00,OVC,,0.00,0.0,WeatherDisplay:10.37,2015-01-30 14:26:00,
2015-01-30 06:31:00,52.0,50.0,30.00,West,278,0.0,0.0,93,0.00,OVC,,0.00,0.0,WeatherDisplay:10.37,2015-01-30 14:31:00,
2015-01-30 06:36:00,52.0,50.0,30.00,West,278,0.0,0.0,93,0.00,OVC,,0.00,0.0,WeatherDisplay:10.37,2015-01-30 14:36:00,
2015-01-30 06:41:00,52.0,50.0,30.00,West,278,0.0,0.0,93,0.00,OVC,,0.00,0.0,WeatherDisplay:10.37,2015-01-30 14:41:00,
2015-01-30 06:46:00,52.0,50.0,30.00,West,278,0.0,0.0,93,0.00,OVC,,0.00,0.0,WeatherDisplay:10.37,2015-01-30 14:46:00,
2015-01-30 06:51:00,52.0,50.0,30.00,West,278,0.0,0.0,93,0.00,OVC,,0.00,0.0,WeatherDisplay:10.37,2015-01-30 14:51:00,
2015-01-30 06:56:00,51.9,49.9,30.00,West,277,0.0,0.0,93,0.00,OVC,,0.00,0.0,WeatherDisplay:10.37,2015-01-30 14:56:00,
2015-01-30 07:01:00,51.9,49.9,30.00,West,278,0.0,0.0,93,0.00,OVC,,0.00,0.0,WeatherDisplay:10.37,2015-01-30 15:01:00,
2015-01-30 07:06:00,51.9,49.9,30.00,West,278,0.0,0.0,93,0.00,OVC,,0.00,0.0,WeatherDisplay:10.37,2015-01-30 15:06:00,
2015-01-30 07:11:00,51.9,49.9,30.00,West,279,0.0,0.0,93,0.00,OVC,,0.00,0.0,WeatherDisplay:10.37,2015-01-30 15:11:00,
2015-01-30 07:16:00,51.9,49.9,30.00,West,278,0.0,0.0,93,0.00,OVC,,0.00,0.0,WeatherDisplay:10.37,2015-01-30 15:16:00,
2015-01-30 07:22:00,51.9,49.9,30.00,West,278,0.0,0.0,93,0.00,OVC,,0.00,0.0,WeatherDisplay:10.37,2015-01-30 15:22:00,
2015-01-30 07:27:00,51.9,49.9,30.00,West,278,0.0,0.0,93,0.00,OVC,,0.00,5.0,WeatherDisplay:10.37,2015-01-30 15:27:00,
2015-01-30 07:32:00,51.9,49.9,30.00,West,278,0.0,0.0,93,0.00,OVC,,0.00,9.0,WeatherDisplay:10.37,2015-01-30 15:32:00,
2015-01-30 07:37:00,51.7,49.7,30.00,West,278,0.0,0.0,93,0.00,OVC,,0.00,16.0,WeatherDisplay:10.37,2015-01-30 15:37:00,
2015-01-30 07:42:00,51.7,49.7,30.00,West,278,2.3,2.3,93,0.00,OVC,,0.00,19.0,WeatherDisplay:10.37,2015-01-30 15:42:00,
2015-01-30 07:47:00,51.7,49.7,30.00,West,278,0.0,0.0,93,0.00,OVC,,0.00,16.0,WeatherDisplay:10.37,2015-01-30 15:47:00,
2015-01-30 07:52:00,51.7,49.7,30.00,West,278,0.0,0.0,93,0.00,OVC,,0.00,23.0,WeatherDisplay:10.37,2015-01-30 15:52:00,
2015-01-30 07:57:00,51.9,49.9,30.00,West,277,0.0,0.0,93,0.00,OVC,,0.00,21.0,WeatherDisplay:10.37,2015-01-30 15:57:00,
2015-01-30 08:02:00,51.9,49.9,30.00,West,278,0.0,0.0,93,0.00,OVC,,0.00,23.0,WeatherDisplay:10.37,2015-01-30 16:02:00,
2015-01-30 08:07:00,52.0,50.0,30.00,West,278,0.0,0.0,93,0.00,OVC,,0.00,32.0,WeatherDisplay:10.37,2015-01-30 16:07:00,
2015-01-30 08:12:00,52.0,50.0,30.00,West,278,0.0,0.0,93,0.00,OVC,,0.00,32.0,WeatherDisplay:10.37,2015-01-30 16:12:00,
2015-01-30 08:17:00,52.2,50.2,30.00,West,277,2.3,2.3,93,0.00,OVC,,0.00,35.0,WeatherDisplay:10.37,2015-01-30 16:17:00,
2015-01-30 08:22:00,52.2,50.2,30.00,West,278,0.0,0.0,93,0.00,OVC,,0.00,35.0,WeatherDisplay:10.37,2015-01-30 16:22:00,
2015-01-30 08:27:00,52.0,50.0,30.00,West,278,1.2,0.0,93,0.00,OVC,,0.00,42.0,WeatherDisplay:10.37,2015-01-30 16:27:00,
2015-01-30 08:32:00,52.2,50.2,30.01,West,277,0.0,0.0,93,0.00,OVC,,0.00,44.0,WeatherDisplay:10.37,2015-01-30 16:32:00,
2015-01-30 08:37:00,52.2,50.2,30.01,West,278,0.0,0.0,93,0.00,OVC,,0.00,53.0,WeatherDisplay:10.37,2015-01-30 16:37:00,
2015-01-30 08:42:00,52.2,50.2,30.01,West,278,0.0,0.0,93,0.00,OVC,,0.00,53.0,WeatherDisplay:10.37,2015-01-30 16:42:00,
2015-01-30 08:47:00,52.2,50.2,30.01,West,277,0.0,0.0,93,0.00,OVC,,0.00,56.0,WeatherDisplay:10.37,2015-01-30 16:47:00,
2015-01-30 08:52:00,52.2,50.2,30.01,West,278,1.2,0.0,93,0.00,OVC,,0.00,60.0,WeatherDisplay:10.37,2015-01-30 16:52:00,
2015-01-30 08:57:00,52.2,50.2,30.01,West,279,0.0,0.0,93,0.00,OVC,,0.00,67.0,WeatherDisplay:10.37,2015-01-30 16:57:00,
2015-01-30 09:02:00,52.2,50.2,30.01,West,278,0.0,0.0,93,0.00,OVC,,0.00,70.0,WeatherDisplay:10.37,2015-01-30 17:02:00,
2015-01-30 09:07:00,52.3,50.3,30.01,West,277,0.0,0.0,93,0.00,OVC,,0.00,76.0,WeatherDisplay:10.37,2015-01-30 17:07:00,
2015-01-30 09:12:00,52.3,50.3,30.01,West,278,0.0,0.0,93,0.00,OVC,,0.00,83.0,WeatherDisplay:10.37,2015-01-30 17:12:00,
2015-01-30 09:17:00,52.5,50.2,30.01,West,278,1.2,0.0,92,0.00,OVC,,0.00,91.0,WeatherDisplay:10.37,2015-01-30 17:17:00,
2015-01-30 09:22:00,52.5,50.2,30.01,West,278,1.2,0.0,92,0.00,OVC,,0.00,97.0,WeatherDisplay:10.37,2015-01-30 17:22:00,
2015-01-30 09:27:00,52.6,50.3,30.01,West,278,2.0,2.0,92,0.00,OVC,,0.00,114.0,WeatherDisplay:10.37,2015-01-30 17:27:00,
2015-01-30 09:32:00,52.5,50.2,30.01,West,277,1.2,0.0,92,0.00,OVC,,0.00,135.0,WeatherDisplay:10.37,2015-01-30 17:32:00,
2015-01-30 09:37:00,52.5,50.2,30.01,West,278,1.2,0.0,92,0.00,OVC,,0.00,155.0,WeatherDisplay:10.37,2015-01-30 17:37:00,
2015-01-30 09:42:00,52.5,50.2,30.01,West,278,1.2,0.0,92,0.00,OVC,,0.00,139.0,WeatherDisplay:10.37,2015-01-30 17:42:00,
2015-01-30 09:47:00,52.5,50.2,30.01,West,278,0.0,0.0,92,0.00,OVC,,0.00,134.0,WeatherDisplay:10.37,2015-01-30 17:47:00,
2015-01-30 09:52:00,52.5,50.2,30.01,West,278,3.5,3.5,92,0.00,OVC,,0.00,148.0,WeatherDisplay:10.37,2015-01-30 17:52:00,
2015-01-30 09:57:00,52.5,49.9,30.01,West,277,0.0,0.1,91,0.00,OVC,,0.00,153.0,WeatherDisplay:10.37,2015-01-30 17:57:00,
2015-01-30 10:02:00,52.6,50.0,30.01,West,278,0.0,0.0,91,0.00,OVC,,0.00,149.0,WeatherDisplay:10.37,2015-01-30 18:02:00,
2015-01-30 10:07:00,52.6,50.0,30.01,West,278,0.0,0.0,91,0.00,OVC,,0.00,199.0,WeatherDisplay:10.37,2015-01-30 18:07:00,
2015-01-30 10:12:00,52.8,50.2,30.01,West,279,0.0,0.0,91,0.00,OVC,,0.00,193.0,WeatherDisplay:10.37,2015-01-30 18:12:00,
2015-01-30 10:17:00,53.1,50.5,30.01,West,277,0.0,0.0,91,0.00,OVC,,0.00,216.0,WeatherDisplay:10.37,2015-01-30 18:17:00,
2015-01-30 10:23:00,53.1,50.2,30.01,West,270,4.0,4.0,90,0.00,OVC,,0.00,276.0,WeatherDisplay:10.37,2015-01-30 18:23:00,
2015-01-30 10:28:00,53.2,50.3,30.01,WSW,253,0.0,0.0,90,0.00,OVC,,0.00,223.0,WeatherDisplay:10.37,2015-01-30 18:28:00,
2015-01-30 10:33:00,53.2,50.3,30.01,WSW,253,0.0,0.0,90,0.00,OVC,,0.00,234.0,WeatherDisplay:10.37,2015-01-30 18:33:00,
2015-01-30 10:38:00,53.3,50.4,30.01,WSW,253,0.0,0.0,90,0.00,OVC,,0.00,302.0,WeatherDisplay:10.37,2015-01-30 18:38:00,
2015-01-30 10:43:00,53.6,50.7,30.01,WSW,253,1.2,0.0,90,0.00,OVC,,0.00,301.0,WeatherDisplay:10.37,2015-01-30 18:43:00,
2015-01-30 10:48:00,54.2,51.3,30.00,WSW,249,0.0,0.0,90,0.00,OVC,,0.00,633.0,WeatherDisplay:10.37,2015-01-30 18:48:00,
2015-01-30 10:53:00,54.7,51.2,30.00,WSW,243,3.5,3.5,88,0.00,OVC,,0.00,635.0,WeatherDisplay:10.37,2015-01-30 18:53:00,
2015-01-30 10:58:00,55.1,51.3,30.00,SW,233,0.0,0.0,87,0.00,OVC,,0.00,587.0,WeatherDisplay:10.37,2015-01-30 18:58:00,
2015-01-30 11:03:00,55.3,50.9,30.00,SW,229,3.0,3.0,85,0.00,FEW,,0.00,501.0,WeatherDisplay:10.37,2015-01-30 19:03:00,
2015-01-30 11:08:00,55.6,50.8,30.00,SW,225,2.3,2.3,84,0.00,FEW,,0.00,504.0,WeatherDisplay:10.37,2015-01-30 19:08:00,
2015-01-30 11:13:00,55.7,50.6,30.00,SW,224,4.0,4.0,83,0.00,FEW,,0.00,520.0,WeatherDisplay:10.37,2015-01-30 19:13:00,
2015-01-30 11:18:00,55.9,50.5,29.99,SW,223,1.2,0.0,82,0.00,FEW,,0.00,526.0,WeatherDisplay:10.37,2015-01-30 19:18:00,
2015-01-30 11:23:00,56.5,50.7,29.99,SW,223,0.0,0.0,81,0.00,FEW,,0.00,533.0,WeatherDisplay:10.37,2015-01-30 19:23:00,
2015-01-30 11:28:00,57.0,50.9,29.99,SW,223,0.0,0.0,80,0.00,FEW,,0.00,536.0,WeatherDisplay:10.37,2015-01-30 19:28:00,
2015-01-30 11:33:00,57.8,51.3,29.98,SW,223,1.0,0.0,79,0.00,FEW,,0.00,547.0,WeatherDisplay:10.37,2015-01-30 19:33:00,
2015-01-30 11:38:00,58.1,50.9,29.98,SW,223,0.0,0.0,77,0.00,FEW,,0.00,554.0,WeatherDisplay:10.37,2015-01-30 19:38:00,
2015-01-30 11:44:00,58.3,50.8,29.98,SW,223,2.3,2.3,76,0.00,FEW,,0.00,561.0,WeatherDisplay:10.37,2015-01-30 19:44:00,
2015-01-30 11:49:00,58.4,50.9,29.97,SW,223,0.0,0.1,76,0.00,FEW,,0.00,561.0,WeatherDisplay:10.37,2015-01-30 19:49:00,
2015-01-30 11:54:00,58.6,50.7,29.97,SW,224,0.0,0.0,75,0.00,FEW,,0.00,566.0,WeatherDisplay:10.37,2015-01-30 19:54:00,
2015-01-30 11:59:00,58.9,50.6,29.97,SW,225,3.5,3.5,74,0.00,FEW,,0.00,570.0,WeatherDisplay:10.37,2015-01-30 19:59:00,
2015-01-30 12:04:00,58.7,51.2,29.96,SW,226,2.3,2.3,76,0.00,CLR,,0.00,568.0,WeatherDisplay:10.37,2015-01-30 20:04:00,
2015-01-30 12:09:00,58.9,51.3,29.96,SW,229,6.0,6.0,76,0.00,CLR,,0.00,570.0,WeatherDisplay:10.37,2015-01-30 20:09:00,
2015-01-30 12:14:00,58.7,50.8,29.96,SW,231,3.5,3.5,75,0.00,CLR,,0.00,571.0,WeatherDisplay:10.37,2015-01-30 20:14:00,
2015-01-30 12:19:00,58.6,50.7,29.95,SW,235,3.5,3.5,75,0.00,CLR,,0.00,577.0,WeatherDisplay:10.37,2015-01-30 20:19:00,
2015-01-30 12:24:00,59.0,50.0,29.95,SW,235,5.8,5.8,72,0.00,CLR,,0.00,578.0,WeatherDisplay:10.37,2015-01-30 20:24:00,
2015-01-30 12:29:00,59.0,50.0,29.95,SW,236,4.6,4.6,72,0.00,CLR,,0.00,578.0,WeatherDisplay:10.37,2015-01-30 20:29:00,
2015-01-30 12:34:00,58.9,49.1,29.94,WSW,237,4.6,4.6,70,0.00,CLR,,0.00,577.0,WeatherDisplay:10.37,2015-01-30 20:34:00,